FID,codice,elemento,parametro,geom,tstamp,valore
Aria_O3_168h_preview.Barco.2024-05-13 22:00:00+02,Barco,"Via Rino Maragno 46, Ferrara",O3,POINT (44.860988 11.607838),2024-05-13T22:00:00,83.2
Aria_O3_168h_preview.Barco.2024-05-13 23:00:00+02,Barco,"Via Rino Maragno 46, Ferrara",O3,POINT (44.860988 11.607838),2024-05-13T23:00:00,80.2
Aria_O3_168h_preview.Barco.2024-05-14 00:00:00+02,Barco,"Via Rino Maragno 46, Ferrara",O3,POINT (44.860988 11.607838),2024-05-14T00:00:00,89.1
Aria_O3_168h_preview.Barco.2024-05-14 01:00:00+02,Barco,"Via Rino Maragno 46, Ferrara",O3,POINT (44.860988 11.607838),2024-05-14T01:00:00,69.8
Aria_O3_168h_preview.Barco.2024-05-14 02:00:00+02,Barco,"Via Rino Maragno 46, Ferrara",O3,POINT (44.860988 11.607838),2024-05-14T02:00:00,72.3
Aria_O3_168h_preview.Barco.2024-05-14 03:00:00+02,Barco,"Via Rino Maragno 46, Ferrara",O3,POINT (44.860988 11.607838),2024-05-14T03:00:00,61
Aria_O3_168h_preview.Barco.2024-05-14 04:00:00+02,Barco,"Via Rino Maragno 46, Ferrara",O3,POINT (44.860988 11.607838),2024-05-14T04:00:00,47.4
Aria_O3_168h_preview.Barco.2024-05-14 05:00:00+02,Barco,"Via Rino Maragno 46, Ferrara",O3,POINT (44.860988 11.607838),2024-05-14T05:00:00,41.6
Aria_O3_168h_preview.Barco.2024-05-14 06:00:00+02,Barco,"Via Rino Maragno 46, Ferrara",O3,POINT (44.860988 11.607838),2024-05-14T06:00:00,53.8
Aria_O3_168h_preview.Barco.2024-05-14 07:00:00+02,Barco,"Via Rino Maragno 46, Ferrara",O3,POINT (44.860988 11.607838),2024-05-14T07:00:00,47.4
Aria_O3_168h_preview.Barco.2024-05-14 08:00:00+02,Barco,"Via Rino Maragno 46, Ferrara",O3,POINT (44.860988 11.607838),2024-05-14T08:00:00,44.8
Aria_O3_168h_preview.Barco.2024-05-14 09:00:00+02,Barco,"Via Rino Maragno 46, Ferrara",O3,POINT (44.860988 11.607838),2024-05-14T09:00:00,65.7
Aria_O3_168h_preview.Barco.2024-05-14 10:00:00+02,Barco,"Via Rino Maragno 46, Ferrara",O3,POINT (44.860988 11.607838),2024-05-14T10:00:00,97.7
Aria_O3_168h_preview.Barco.2024-05-14 11:00:00+02,Barco,"Via Rino Maragno 46, Ferrara",O3,POINT (44.860988 11.607838),2024-05-14T11:00:00,104.6
Aria_O3_168h_preview.Barco.2024-05-14 12:00:00+02,Barco,"Via Rino Maragno 46, Ferrara",O3,POINT (44.860988 11.607838),2024-05-14T12:00:00,113.4
Aria_O3_168h_preview.Barco.2024-05-14 13:00:00+02,Barco,"Via Rino Maragno 46, Ferrara",O3,POINT (44.860988 11.607838),2024-05-14T13:00:00,127.1
Aria_O3_168h_preview.Barco.2024-05-14 14:00:00+02,Barco,"Via Rino Maragno 46, Ferrara",O3,POINT (44.860988 11.607838),2024-05-14T14:00:00,108.1
Aria_O3_168h_preview.Barco.2024-05-14 15:00:00+02,Barco,"Via Rino Maragno 46, Ferrara",O3,POINT (44.860988 11.607838),2024-05-14T15:00:00,110.5
Aria_O3_168h_preview.Barco.2024-05-14 16:00:00+02,Barco,"Via Rino Maragno 46, Ferrara",O3,POINT (44.860988 11.607838),2024-05-14T16:00:00,117.8
Aria_O3_168h_preview.Barco.2024-05-14 17:00:00+02,Barco,"Via Rino Maragno 46, Ferrara",O3,POINT (44.860988 11.607838),2024-05-14T17:00:00,109.7
Aria_O3_168h_preview.Barco.2024-05-14 18:00:00+02,Barco,"Via Rino Maragno 46, Ferrara",O3,POINT (44.860988 11.607838),2024-05-14T18:00:00,108.1
Aria_O3_168h_preview.Barco.2024-05-14 19:00:00+02,Barco,"Via Rino Maragno 46, Ferrara",O3,POINT (44.860988 11.607838),2024-05-14T19:00:00,101.4
Aria_O3_168h_preview.Barco.2024-05-14 20:00:00+02,Barco,"Via Rino Maragno 46, Ferrara",O3,POINT (44.860988 11.607838),2024-05-14T20:00:00,95.6
Aria_O3_168h_preview.Barco.2024-05-14 21:00:00+02,Barco,"Via Rino Maragno 46, Ferrara",O3,POINT (44.860988 11.607838),2024-05-14T21:00:00,83.5
Aria_O3_168h_preview.Barco.2024-05-14 22:00:00+02,Barco,"Via Rino Maragno 46, Ferrara",O3,POINT (44.860988 11.607838),2024-05-14T22:00:00,67.5
Aria_O3_168h_preview.Barco.2024-05-14 23:00:00+02,Barco,"Via Rino Maragno 46, Ferrara",O3,POINT (44.860988 11.607838),2024-05-14T23:00:00,51.6
Aria_O3_168h_preview.Barco.2024-05-15 00:00:00+02,Barco,"Via Rino Maragno 46, Ferrara",O3,POINT (44.860988 11.607838),2024-05-15T00:00:00,48.4
Aria_O3_168h_preview.Barco.2024-05-15 01:00:00+02,Barco,"Via Rino Maragno 46, Ferrara",O3,POINT (44.860988 11.607838),2024-05-15T01:00:00,51.1
Aria_O3_168h_preview.Barco.2024-05-15 02:00:00+02,Barco,"Via Rino Maragno 46, Ferrara",O3,POINT (44.860988 11.607838),2024-05-15T02:00:00,48.6
Aria_O3_168h_preview.Barco.2024-05-15 03:00:00+02,Barco,"Via Rino Maragno 46, Ferrara",O3,POINT (44.860988 11.607838),2024-05-15T03:00:00,50.6
Aria_O3_168h_preview.Barco.2024-05-15 04:00:00+02,Barco,"Via Rino Maragno 46, Ferrara",O3,POINT (44.860988 11.607838),2024-05-15T04:00:00,60.5
Aria_O3_168h_preview.Barco.2024-05-15 05:00:00+02,Barco,"Via Rino Maragno 46, Ferrara",O3,POINT (44.860988 11.607838),2024-05-15T05:00:00,70
Aria_O3_168h_preview.Barco.2024-05-15 06:00:00+02,Barco,"Via Rino Maragno 46, Ferrara",O3,POINT (44.860988 11.607838),2024-05-15T06:00:00,64.6
Aria_O3_168h_preview.Barco.2024-05-15 07:00:00+02,Barco,"Via Rino Maragno 46, Ferrara",O3,POINT (44.860988 11.607838),2024-05-15T07:00:00,62.4
Aria_O3_168h_preview.Barco.2024-05-15 08:00:00+02,Barco,"Via Rino Maragno 46, Ferrara",O3,POINT (44.860988 11.607838),2024-05-15T08:00:00,51.9
Aria_O3_168h_preview.Barco.2024-05-15 09:00:00+02,Barco,"Via Rino Maragno 46, Ferrara",O3,POINT (44.860988 11.607838),2024-05-15T09:00:00,56.9
Aria_O3_168h_preview.Barco.2024-05-15 10:00:00+02,Barco,"Via Rino Maragno 46, Ferrara",O3,POINT (44.860988 11.607838),2024-05-15T10:00:00,55.7
Aria_O3_168h_preview.Barco.2024-05-15 11:00:00+02,Barco,"Via Rino Maragno 46, Ferrara",O3,POINT (44.860988 11.607838),2024-05-15T11:00:00,59.8
Aria_O3_168h_preview.Barco.2024-05-15 12:00:00+02,Barco,"Via Rino Maragno 46, Ferrara",O3,POINT (44.860988 11.607838),2024-05-15T12:00:00,57.4
Aria_O3_168h_preview.Barco.2024-05-15 13:00:00+02,Barco,"Via Rino Maragno 46, Ferrara",O3,POINT (44.860988 11.607838),2024-05-15T13:00:00,62.9
Aria_O3_168h_preview.Barco.2024-05-15 14:00:00+02,Barco,"Via Rino Maragno 46, Ferrara",O3,POINT (44.860988 11.607838),2024-05-15T14:00:00,57.3
Aria_O3_168h_preview.Barco.2024-05-15 15:00:00+02,Barco,"Via Rino Maragno 46, Ferrara",O3,POINT (44.860988 11.607838),2024-05-15T15:00:00,75.8
Aria_O3_168h_preview.Barco.2024-05-15 16:00:00+02,Barco,"Via Rino Maragno 46, Ferrara",O3,POINT (44.860988 11.607838),2024-05-15T16:00:00,75.7
Aria_O3_168h_preview.Barco.2024-05-15 17:00:00+02,Barco,"Via Rino Maragno 46, Ferrara",O3,POINT (44.860988 11.607838),2024-05-15T17:00:00,79.6
Aria_O3_168h_preview.Barco.2024-05-15 18:00:00+02,Barco,"Via Rino Maragno 46, Ferrara",O3,POINT (44.860988 11.607838),2024-05-15T18:00:00,65.3
Aria_O3_168h_preview.Barco.2024-05-15 19:00:00+02,Barco,"Via Rino Maragno 46, Ferrara",O3,POINT (44.860988 11.607838),2024-05-15T19:00:00,74.9
Aria_O3_168h_preview.Barco.2024-05-15 20:00:00+02,Barco,"Via Rino Maragno 46, Ferrara",O3,POINT (44.860988 11.607838),2024-05-15T20:00:00,78.6
Aria_O3_168h_preview.Barco.2024-05-15 21:00:00+02,Barco,"Via Rino Maragno 46, Ferrara",O3,POINT (44.860988 11.607838),2024-05-15T21:00:00,80.6
Aria_O3_168h_preview.Barco.2024-05-15 22:00:00+02,Barco,"Via Rino Maragno 46, Ferrara",O3,POINT (44.860988 11.607838),2024-05-15T22:00:00,71.3
Aria_O3_168h_preview.Barco.2024-05-15 23:00:00+02,Barco,"Via Rino Maragno 46, Ferrara",O3,POINT (44.860988 11.607838),2024-05-15T23:00:00,69
Aria_O3_168h_preview.Barco.2024-05-16 00:00:00+02,Barco,"Via Rino Maragno 46, Ferrara",O3,POINT (44.860988 11.607838),2024-05-16T00:00:00,56
Aria_O3_168h_preview.Barco.2024-05-16 01:00:00+02,Barco,"Via Rino Maragno 46, Ferrara",O3,POINT (44.860988 11.607838),2024-05-16T01:00:00,48.4
Aria_O3_168h_preview.Barco.2024-05-16 02:00:00+02,Barco,"Via Rino Maragno 46, Ferrara",O3,POINT (44.860988 11.607838),2024-05-16T02:00:00,48.3
Aria_O3_168h_preview.Barco.2024-05-16 03:00:00+02,Barco,"Via Rino Maragno 46, Ferrara",O3,POINT (44.860988 11.607838),2024-05-16T03:00:00,56.9
Aria_O3_168h_preview.Barco.2024-05-16 04:00:00+02,Barco,"Via Rino Maragno 46, Ferrara",O3,POINT (44.860988 11.607838),2024-05-16T04:00:00,77.8
Aria_O3_168h_preview.Barco.2024-05-16 05:00:00+02,Barco,"Via Rino Maragno 46, Ferrara",O3,POINT (44.860988 11.607838),2024-05-16T05:00:00,77
Aria_O3_168h_preview.Barco.2024-05-16 06:00:00+02,Barco,"Via Rino Maragno 46, Ferrara",O3,POINT (44.860988 11.607838),2024-05-16T06:00:00,72.7
Aria_O3_168h_preview.Barco.2024-05-16 07:00:00+02,Barco,"Via Rino Maragno 46, Ferrara",O3,POINT (44.860988 11.607838),2024-05-16T07:00:00,61.8
Aria_O3_168h_preview.Barco.2024-05-16 08:00:00+02,Barco,"Via Rino Maragno 46, Ferrara",O3,POINT (44.860988 11.607838),2024-05-16T08:00:00,58.5
Aria_O3_168h_preview.Barco.2024-05-16 09:00:00+02,Barco,"Via Rino Maragno 46, Ferrara",O3,POINT (44.860988 11.607838),2024-05-16T09:00:00,56.8
Aria_O3_168h_preview.Barco.2024-05-16 10:00:00+02,Barco,"Via Rino Maragno 46, Ferrara",O3,POINT (44.860988 11.607838),2024-05-16T10:00:00,57.3
Aria_O3_168h_preview.Barco.2024-05-16 11:00:00+02,Barco,"Via Rino Maragno 46, Ferrara",O3,POINT (44.860988 11.607838),2024-05-16T11:00:00,64.5
Aria_O3_168h_preview.Barco.2024-05-16 12:00:00+02,Barco,"Via Rino Maragno 46, Ferrara",O3,POINT (44.860988 11.607838),2024-05-16T12:00:00,67.6
Aria_O3_168h_preview.Barco.2024-05-16 13:00:00+02,Barco,"Via Rino Maragno 46, Ferrara",O3,POINT (44.860988 11.607838),2024-05-16T13:00:00,73.9
Aria_O3_168h_preview.Barco.2024-05-16 14:00:00+02,Barco,"Via Rino Maragno 46, Ferrara",O3,POINT (44.860988 11.607838),2024-05-16T14:00:00,67.8
Aria_O3_168h_preview.Barco.2024-05-16 15:00:00+02,Barco,"Via Rino Maragno 46, Ferrara",O3,POINT (44.860988 11.607838),2024-05-16T15:00:00,93.2
Aria_O3_168h_preview.Barco.2024-05-16 16:00:00+02,Barco,"Via Rino Maragno 46, Ferrara",O3,POINT (44.860988 11.607838),2024-05-16T16:00:00,106.9
Aria_O3_168h_preview.Barco.2024-05-16 17:00:00+02,Barco,"Via Rino Maragno 46, Ferrara",O3,POINT (44.860988 11.607838),2024-05-16T17:00:00,101.5
Aria_O3_168h_preview.Barco.2024-05-16 18:00:00+02,Barco,"Via Rino Maragno 46, Ferrara",O3,POINT (44.860988 11.607838),2024-05-16T18:00:00,75.3
Aria_O3_168h_preview.Barco.2024-05-16 19:00:00+02,Barco,"Via Rino Maragno 46, Ferrara",O3,POINT (44.860988 11.607838),2024-05-16T19:00:00,77.3
Aria_O3_168h_preview.Barco.2024-05-16 20:00:00+02,Barco,"Via Rino Maragno 46, Ferrara",O3,POINT (44.860988 11.607838),2024-05-16T20:00:00,66.6
Aria_O3_168h_preview.Barco.2024-05-16 21:00:00+02,Barco,"Via Rino Maragno 46, Ferrara",O3,POINT (44.860988 11.607838),2024-05-16T21:00:00,77.9
Aria_O3_168h_preview.Barco.2024-05-16 22:00:00+02,Barco,"Via Rino Maragno 46, Ferrara",O3,POINT (44.860988 11.607838),2024-05-16T22:00:00,70.3
Aria_O3_168h_preview.Barco.2024-05-16 23:00:00+02,Barco,"Via Rino Maragno 46, Ferrara",O3,POINT (44.860988 11.607838),2024-05-16T23:00:00,57.2
Aria_O3_168h_preview.Barco.2024-05-17 00:00:00+02,Barco,"Via Rino Maragno 46, Ferrara",O3,POINT (44.860988 11.607838),2024-05-17T00:00:00,51.7
Aria_O3_168h_preview.Barco.2024-05-17 01:00:00+02,Barco,"Via Rino Maragno 46, Ferrara",O3,POINT (44.860988 11.607838),2024-05-17T01:00:00,47
Aria_O3_168h_preview.Barco.2024-05-17 02:00:00+02,Barco,"Via Rino Maragno 46, Ferrara",O3,POINT (44.860988 11.607838),2024-05-17T02:00:00,42.4
Aria_O3_168h_preview.Barco.2024-05-17 03:00:00+02,Barco,"Via Rino Maragno 46, Ferrara",O3,POINT (44.860988 11.607838),2024-05-17T03:00:00,39.7
Aria_O3_168h_preview.Barco.2024-05-17 04:00:00+02,Barco,"Via Rino Maragno 46, Ferrara",O3,POINT (44.860988 11.607838),2024-05-17T04:00:00,31.6
Aria_O3_168h_preview.Barco.2024-05-17 05:00:00+02,Barco,"Via Rino Maragno 46, Ferrara",O3,POINT (44.860988 11.607838),2024-05-17T05:00:00,22.4
Aria_O3_168h_preview.Barco.2024-05-17 06:00:00+02,Barco,"Via Rino Maragno 46, Ferrara",O3,POINT (44.860988 11.607838),2024-05-17T06:00:00,20.2
Aria_O3_168h_preview.Barco.2024-05-17 07:00:00+02,Barco,"Via Rino Maragno 46, Ferrara",O3,POINT (44.860988 11.607838),2024-05-17T07:00:00,19.9
Aria_O3_168h_preview.Barco.2024-05-17 08:00:00+02,Barco,"Via Rino Maragno 46, Ferrara",O3,POINT (44.860988 11.607838),2024-05-17T08:00:00,2.8
Aria_O3_168h_preview.Barco.2024-05-17 09:00:00+02,Barco,"Via Rino Maragno 46, Ferrara",O3,POINT (44.860988 11.607838),2024-05-17T09:00:00,20.8
Aria_O3_168h_preview.Barco.2024-05-17 10:00:00+02,Barco,"Via Rino Maragno 46, Ferrara",O3,POINT (44.860988 11.607838),2024-05-17T10:00:00,64.3
Aria_O3_168h_preview.Barco.2024-05-17 11:00:00+02,Barco,"Via Rino Maragno 46, Ferrara",O3,POINT (44.860988 11.607838),2024-05-17T11:00:00,93.5
Aria_O3_168h_preview.Barco.2024-05-17 12:00:00+02,Barco,"Via Rino Maragno 46, Ferrara",O3,POINT (44.860988 11.607838),2024-05-17T12:00:00,112.6
Aria_O3_168h_preview.Barco.2024-05-17 13:00:00+02,Barco,"Via Rino Maragno 46, Ferrara",O3,POINT (44.860988 11.607838),2024-05-17T13:00:00,118.1
Aria_O3_168h_preview.Barco.2024-05-17 14:00:00+02,Barco,"Via Rino Maragno 46, Ferrara",O3,POINT (44.860988 11.607838),2024-05-17T14:00:00,117.5
Aria_O3_168h_preview.Barco.2024-05-17 15:00:00+02,Barco,"Via Rino Maragno 46, Ferrara",O3,POINT (44.860988 11.607838),2024-05-17T15:00:00,113
Aria_O3_168h_preview.Barco.2024-05-17 16:00:00+02,Barco,"Via Rino Maragno 46, Ferrara",O3,POINT (44.860988 11.607838),2024-05-17T16:00:00,108.2
Aria_O3_168h_preview.Barco.2024-05-17 17:00:00+02,Barco,"Via Rino Maragno 46, Ferrara",O3,POINT (44.860988 11.607838),2024-05-17T17:00:00,104.7
Aria_O3_168h_preview.Barco.2024-05-17 18:00:00+02,Barco,"Via Rino Maragno 46, Ferrara",O3,POINT (44.860988 11.607838),2024-05-17T18:00:00,106.8
Aria_O3_168h_preview.Barco.2024-05-17 19:00:00+02,Barco,"Via Rino Maragno 46, Ferrara",O3,POINT (44.860988 11.607838),2024-05-17T19:00:00,98.1
Aria_O3_168h_preview.Barco.2024-05-17 20:00:00+02,Barco,"Via Rino Maragno 46, Ferrara",O3,POINT (44.860988 11.607838),2024-05-17T20:00:00,86.6
Aria_O3_168h_preview.Barco.2024-05-17 21:00:00+02,Barco,"Via Rino Maragno 46, Ferrara",O3,POINT (44.860988 11.607838),2024-05-17T21:00:00,77.4
Aria_O3_168h_preview.Barco.2024-05-17 22:00:00+02,Barco,"Via Rino Maragno 46, Ferrara",O3,POINT (44.860988 11.607838),2024-05-17T22:00:00,66.5
Aria_O3_168h_preview.Barco.2024-05-17 23:00:00+02,Barco,"Via Rino Maragno 46, Ferrara",O3,POINT (44.860988 11.607838),2024-05-17T23:00:00,55.6
Aria_O3_168h_preview.Barco.2024-05-18 00:00:00+02,Barco,"Via Rino Maragno 46, Ferrara",O3,POINT (44.860988 11.607838),2024-05-18T00:00:00,49.1
Aria_O3_168h_preview.Barco.2024-05-18 01:00:00+02,Barco,"Via Rino Maragno 46, Ferrara",O3,POINT (44.860988 11.607838),2024-05-18T01:00:00,42.2
Aria_O3_168h_preview.Barco.2024-05-18 02:00:00+02,Barco,"Via Rino Maragno 46, Ferrara",O3,POINT (44.860988 11.607838),2024-05-18T02:00:00,43.3
Aria_O3_168h_preview.Barco.2024-05-18 03:00:00+02,Barco,"Via Rino Maragno 46, Ferrara",O3,POINT (44.860988 11.607838),2024-05-18T03:00:00,47.8
Aria_O3_168h_preview.Barco.2024-05-18 04:00:00+02,Barco,"Via Rino Maragno 46, Ferrara",O3,POINT (44.860988 11.607838),2024-05-18T04:00:00,53
Aria_O3_168h_preview.Barco.2024-05-18 05:00:00+02,Barco,"Via Rino Maragno 46, Ferrara",O3,POINT (44.860988 11.607838),2024-05-18T05:00:00,57.6
Aria_O3_168h_preview.Barco.2024-05-18 06:00:00+02,Barco,"Via Rino Maragno 46, Ferrara",O3,POINT (44.860988 11.607838),2024-05-18T06:00:00,39.3
Aria_O3_168h_preview.Barco.2024-05-18 07:00:00+02,Barco,"Via Rino Maragno 46, Ferrara",O3,POINT (44.860988 11.607838),2024-05-18T07:00:00,25.9
Aria_O3_168h_preview.Barco.2024-05-18 08:00:00+02,Barco,"Via Rino Maragno 46, Ferrara",O3,POINT (44.860988 11.607838),2024-05-18T08:00:00,24.5
Aria_O3_168h_preview.Barco.2024-05-18 09:00:00+02,Barco,"Via Rino Maragno 46, Ferrara",O3,POINT (44.860988 11.607838),2024-05-18T09:00:00,38
Aria_O3_168h_preview.Barco.2024-05-18 10:00:00+02,Barco,"Via Rino Maragno 46, Ferrara",O3,POINT (44.860988 11.607838),2024-05-18T10:00:00,69.3
Aria_O3_168h_preview.Barco.2024-05-18 11:00:00+02,Barco,"Via Rino Maragno 46, Ferrara",O3,POINT (44.860988 11.607838),2024-05-18T11:00:00,81.3
Aria_O3_168h_preview.Barco.2024-05-18 12:00:00+02,Barco,"Via Rino Maragno 46, Ferrara",O3,POINT (44.860988 11.607838),2024-05-18T12:00:00,106.4
Aria_O3_168h_preview.Barco.2024-05-18 13:00:00+02,Barco,"Via Rino Maragno 46, Ferrara",O3,POINT (44.860988 11.607838),2024-05-18T13:00:00,98.8
Aria_O3_168h_preview.Barco.2024-05-18 14:00:00+02,Barco,"Via Rino Maragno 46, Ferrara",O3,POINT (44.860988 11.607838),2024-05-18T14:00:00,114.2
Aria_O3_168h_preview.Barco.2024-05-18 15:00:00+02,Barco,"Via Rino Maragno 46, Ferrara",O3,POINT (44.860988 11.607838),2024-05-18T15:00:00,119.3
Aria_O3_168h_preview.Barco.2024-05-18 16:00:00+02,Barco,"Via Rino Maragno 46, Ferrara",O3,POINT (44.860988 11.607838),2024-05-18T16:00:00,116.2
Aria_O3_168h_preview.Barco.2024-05-18 17:00:00+02,Barco,"Via Rino Maragno 46, Ferrara",O3,POINT (44.860988 11.607838),2024-05-18T17:00:00,111.3
Aria_O3_168h_preview.Barco.2024-05-18 18:00:00+02,Barco,"Via Rino Maragno 46, Ferrara",O3,POINT (44.860988 11.607838),2024-05-18T18:00:00,115.5
Aria_O3_168h_preview.Barco.2024-05-18 19:00:00+02,Barco,"Via Rino Maragno 46, Ferrara",O3,POINT (44.860988 11.607838),2024-05-18T19:00:00,93.6
Aria_O3_168h_preview.Barco.2024-05-18 20:00:00+02,Barco,"Via Rino Maragno 46, Ferrara",O3,POINT (44.860988 11.607838),2024-05-18T20:00:00,86
Aria_O3_168h_preview.Barco.2024-05-18 21:00:00+02,Barco,"Via Rino Maragno 46, Ferrara",O3,POINT (44.860988 11.607838),2024-05-18T21:00:00,78.2
Aria_O3_168h_preview.Barco.2024-05-18 22:00:00+02,Barco,"Via Rino Maragno 46, Ferrara",O3,POINT (44.860988 11.607838),2024-05-18T22:00:00,70.4
Aria_O3_168h_preview.Barco.2024-05-18 23:00:00+02,Barco,"Via Rino Maragno 46, Ferrara",O3,POINT (44.860988 11.607838),2024-05-18T23:00:00,59.2
Aria_O3_168h_preview.Barco.2024-05-19 00:00:00+02,Barco,"Via Rino Maragno 46, Ferrara",O3,POINT (44.860988 11.607838),2024-05-19T00:00:00,39.7
Aria_O3_168h_preview.Barco.2024-05-19 01:00:00+02,Barco,"Via Rino Maragno 46, Ferrara",O3,POINT (44.860988 11.607838),2024-05-19T01:00:00,37
Aria_O3_168h_preview.Barco.2024-05-19 02:00:00+02,Barco,"Via Rino Maragno 46, Ferrara",O3,POINT (44.860988 11.607838),2024-05-19T02:00:00,39.4
Aria_O3_168h_preview.Barco.2024-05-19 03:00:00+02,Barco,"Via Rino Maragno 46, Ferrara",O3,POINT (44.860988 11.607838),2024-05-19T03:00:00,24.6
Aria_O3_168h_preview.Barco.2024-05-19 04:00:00+02,Barco,"Via Rino Maragno 46, Ferrara",O3,POINT (44.860988 11.607838),2024-05-19T04:00:00,20.2
Aria_O3_168h_preview.Barco.2024-05-19 05:00:00+02,Barco,"Via Rino Maragno 46, Ferrara",O3,POINT (44.860988 11.607838),2024-05-19T05:00:00,11.6
Aria_O3_168h_preview.Barco.2024-05-19 06:00:00+02,Barco,"Via Rino Maragno 46, Ferrara",O3,POINT (44.860988 11.607838),2024-05-19T06:00:00,14.4
Aria_O3_168h_preview.Barco.2024-05-19 07:00:00+02,Barco,"Via Rino Maragno 46, Ferrara",O3,POINT (44.860988 11.607838),2024-05-19T07:00:00,20.5
Aria_O3_168h_preview.Barco.2024-05-19 08:00:00+02,Barco,"Via Rino Maragno 46, Ferrara",O3,POINT (44.860988 11.607838),2024-05-19T08:00:00,25.7
Aria_O3_168h_preview.Barco.2024-05-19 09:00:00+02,Barco,"Via Rino Maragno 46, Ferrara",O3,POINT (44.860988 11.607838),2024-05-19T09:00:00,47.7
Aria_O3_168h_preview.Barco.2024-05-19 10:00:00+02,Barco,"Via Rino Maragno 46, Ferrara",O3,POINT (44.860988 11.607838),2024-05-19T10:00:00,67.2
Aria_O3_168h_preview.Barco.2024-05-19 11:00:00+02,Barco,"Via Rino Maragno 46, Ferrara",O3,POINT (44.860988 11.607838),2024-05-19T11:00:00,66.8
Aria_O3_168h_preview.Barco.2024-05-19 12:00:00+02,Barco,"Via Rino Maragno 46, Ferrara",O3,POINT (44.860988 11.607838),2024-05-19T12:00:00,78
Aria_O3_168h_preview.Barco.2024-05-19 13:00:00+02,Barco,"Via Rino Maragno 46, Ferrara",O3,POINT (44.860988 11.607838),2024-05-19T13:00:00,108.2
Aria_O3_168h_preview.Barco.2024-05-19 14:00:00+02,Barco,"Via Rino Maragno 46, Ferrara",O3,POINT (44.860988 11.607838),2024-05-19T14:00:00,107.7
Aria_O3_168h_preview.Barco.2024-05-19 15:00:00+02,Barco,"Via Rino Maragno 46, Ferrara",O3,POINT (44.860988 11.607838),2024-05-19T15:00:00,120.9
Aria_O3_168h_preview.Barco.2024-05-19 16:00:00+02,Barco,"Via Rino Maragno 46, Ferrara",O3,POINT (44.860988 11.607838),2024-05-19T16:00:00,107.9
Aria_O3_168h_preview.Barco.2024-05-19 17:00:00+02,Barco,"Via Rino Maragno 46, Ferrara",O3,POINT (44.860988 11.607838),2024-05-19T17:00:00,98.9
Aria_O3_168h_preview.Barco.2024-05-19 18:00:00+02,Barco,"Via Rino Maragno 46, Ferrara",O3,POINT (44.860988 11.607838),2024-05-19T18:00:00,105.1
Aria_O3_168h_preview.Barco.2024-05-19 19:00:00+02,Barco,"Via Rino Maragno 46, Ferrara",O3,POINT (44.860988 11.607838),2024-05-19T19:00:00,98.6
Aria_O3_168h_preview.Barco.2024-05-19 20:00:00+02,Barco,"Via Rino Maragno 46, Ferrara",O3,POINT (44.860988 11.607838),2024-05-19T20:00:00,85.9
Aria_O3_168h_preview.Barco.2024-05-19 21:00:00+02,Barco,"Via Rino Maragno 46, Ferrara",O3,POINT (44.860988 11.607838),2024-05-19T21:00:00,70.5
Aria_O3_168h_preview.Barco.2024-05-19 22:00:00+02,Barco,"Via Rino Maragno 46, Ferrara",O3,POINT (44.860988 11.607838),2024-05-19T22:00:00,65.3
Aria_O3_168h_preview.Barco.2024-05-19 23:00:00+02,Barco,"Via Rino Maragno 46, Ferrara",O3,POINT (44.860988 11.607838),2024-05-19T23:00:00,51.5
Aria_O3_168h_preview.Barco.2024-05-20 00:00:00+02,Barco,"Via Rino Maragno 46, Ferrara",O3,POINT (44.860988 11.607838),2024-05-20T00:00:00,35.9
Aria_O3_168h_preview.Barco.2024-05-20 01:00:00+02,Barco,"Via Rino Maragno 46, Ferrara",O3,POINT (44.860988 11.607838),2024-05-20T01:00:00,27.2
Aria_O3_168h_preview.Barco.2024-05-20 02:00:00+02,Barco,"Via Rino Maragno 46, Ferrara",O3,POINT (44.860988 11.607838),2024-05-20T02:00:00,25.4
Aria_O3_168h_preview.Barco.2024-05-20 03:00:00+02,Barco,"Via Rino Maragno 46, Ferrara",O3,POINT (44.860988 11.607838),2024-05-20T03:00:00,25.6
Aria_O3_168h_preview.Barco.2024-05-20 04:00:00+02,Barco,"Via Rino Maragno 46, Ferrara",O3,POINT (44.860988 11.607838),2024-05-20T04:00:00,18.2
Aria_O3_168h_preview.Barco.2024-05-20 05:00:00+02,Barco,"Via Rino Maragno 46, Ferrara",O3,POINT (44.860988 11.607838),2024-05-20T05:00:00,16.5
Aria_O3_168h_preview.Barco.2024-05-20 06:00:00+02,Barco,"Via Rino Maragno 46, Ferrara",O3,POINT (44.860988 11.607838),2024-05-20T06:00:00,9.6
Aria_O3_168h_preview.Barco.2024-05-20 07:00:00+02,Barco,"Via Rino Maragno 46, Ferrara",O3,POINT (44.860988 11.607838),2024-05-20T07:00:00,25.6
Aria_O3_168h_preview.Barco.2024-05-20 08:00:00+02,Barco,"Via Rino Maragno 46, Ferrara",O3,POINT (44.860988 11.607838),2024-05-20T08:00:00,26.8
Aria_O3_168h_preview.Barco.2024-05-20 09:00:00+02,Barco,"Via Rino Maragno 46, Ferrara",O3,POINT (44.860988 11.607838),2024-05-20T09:00:00,28.9
Aria_O3_168h_preview.Barco.2024-05-20 10:00:00+02,Barco,"Via Rino Maragno 46, Ferrara",O3,POINT (44.860988 11.607838),2024-05-20T10:00:00,39
Aria_O3_168h_preview.Barco.2024-05-20 11:00:00+02,Barco,"Via Rino Maragno 46, Ferrara",O3,POINT (44.860988 11.607838),2024-05-20T11:00:00,52.7
Aria_O3_168h_preview.Barco.2024-05-20 12:00:00+02,Barco,"Via Rino Maragno 46, Ferrara",O3,POINT (44.860988 11.607838),2024-05-20T12:00:00,68.3
Aria_O3_168h_preview.Barco.2024-05-20 13:00:00+02,Barco,"Via Rino Maragno 46, Ferrara",O3,POINT (44.860988 11.607838),2024-05-20T13:00:00,84.9
Aria_O3_168h_preview.Barco.2024-05-20 14:00:00+02,Barco,"Via Rino Maragno 46, Ferrara",O3,POINT (44.860988 11.607838),2024-05-20T14:00:00,90.8
Aria_O3_168h_preview.Barco.2024-05-20 15:00:00+02,Barco,"Via Rino Maragno 46, Ferrara",O3,POINT (44.860988 11.607838),2024-05-20T15:00:00,99.4
Aria_O3_168h_preview.Barco.2024-05-20 16:00:00+02,Barco,"Via Rino Maragno 46, Ferrara",O3,POINT (44.860988 11.607838),2024-05-20T16:00:00,118.5
Aria_O3_168h_preview.Barco.2024-05-20 17:00:00+02,Barco,"Via Rino Maragno 46, Ferrara",O3,POINT (44.860988 11.607838),2024-05-20T17:00:00,106.5
Aria_O3_168h_preview.Barco.2024-05-20 18:00:00+02,Barco,"Via Rino Maragno 46, Ferrara",O3,POINT (44.860988 11.607838),2024-05-20T18:00:00,104.4
Aria_O3_168h_preview.Barco.2024-05-20 19:00:00+02,Barco,"Via Rino Maragno 46, Ferrara",O3,POINT (44.860988 11.607838),2024-05-20T19:00:00,94.1